FLOCK 2K-31 (42869 NORAD) Tracking and Keplerian Element Data

This shows tracking and keplerian element data for the satellite.

Feedback or suggestion? Click here.




ElementValue
Catalog42869
NameFLOCK 2K-31
Epoch Orbit14615
Epoch Day52.84937588
Epoch Year2020
RAAN287.1856
Inclination96.9097
Eccentricity0.001087
Argument of Perigee42.9006
Mean Anonmoly317.3088
Mean Motion15.40574509
Decay Rate4.417E-05
L11 42869U 17042AW 20052.84937588 .00004417 00000-0 11036-3 0 9994
L22 42869 96.9097 287.1856 0010870 42.9006 317.3088 15.40574509146152

Live tracking and technical data element details for FLOCK 2K-31 (NORAD 42869). FLOCK 2K-31 can be tracked NOW for your location showing map with azimuth and elevation plus other details from your city location.

Track the satellite on the map from your city or location and see movement details for azimuth, elevation, latitude, longitude, range, height, and movement on the map or in text.







IsCatalogInMostPopularTable: catalog: 42869, numindb: 394
Update: records affected: 1



GetName: 42869 FLOCK 2K-31

Hit Count: updated at: Sun, 23 Feb 2020 07:54:08 GMT